Location: Caltech
(34.1382°N, 118.1253°W)
Time: 00:24:04
(UTC-07:00)

NOSS 3-2 (A) - Visible Passes

Search period start: 25 May 2015 00:00
Search period end: 04 June 2015 00:00
Orbit: 925 x 1284 km, 63.4° (Epoch: 20 May)

Date Brightness Start Highest point End Pass type
(mag) Time Alt. Az. Time Alt. Az. Time Alt. Az.
25 May 5.4 01:39:22 10° NW 01:42:55 23° W 01:42:55 23° W visible
25 May 4.8 23:02:34 10° NNW 23:09:26 38° NE 23:11:25 34° E visible
26 May 4.7 00:53:20 10° NW 00:58:47 40° W 00:58:47 40° W visible
26 May 5.4 22:17:45 10° N 22:23:39 26° NE 22:27:19 19° E visible
27 May 4.0 00:07:43 10° NW 00:14:42 70° W 00:14:42 70° W visible
27 May 5.8 21:33:12 10° N 21:37:40 17° NE 21:42:36 10° ENE visible
27 May 3.9 23:22:22 10° NNW 23:29:56 74° ENE 23:30:39 69° E visible
28 May 5.6 01:14:52 10° WNW 01:18:03 19° W 01:18:03 19° W visible
28 May 6.0 20:49:32 10° NNE 20:51:29 11° NNE 20:53:52 10° NE visible
28 May 4.5 22:37:13 10° NNW 22:44:25 48° NE 22:46:39 39° E visible
29 May 5.0 00:28:28 10° NW 00:34:03 33° W 00:34:03 33° W visible
29 May 5.1 21:52:16 10° NNW 21:58:45 32° NE 22:02:43 21° E visible
29 May 4.2 23:42:39 10° NW 23:50:06 57° WSW 23:50:06 57° WSW visible
30 May 5.5 21:07:32 10° N 21:12:52 21° NE 21:18:39 10° E visible
30 May 3.9 22:57:10 10° NNW 23:04:47 88° WSW 23:06:11 65° SSE visible
31 May 5.9 00:50:47 10° WNW 00:53:35 15° W 00:53:35 15° W visible
31 May 5.9 20:23:15 10° N 20:26:48 14° NE 20:30:47 10° ENE visible
31 May 4.2 22:11:55 10° NNW 22:19:21 61° NE 22:22:19 39° ESE visible
01 Jun 5.2 00:03:46 10° NW 00:09:44 27° WSW 00:09:44 27° WSW visible
01 Jun 4.7 21:26:51 10° NNW 21:33:47 40° NE 21:38:30 21° ESE visible
01 Jun 4.5 23:17:41 10° NW 23:24:52 44° WSW 23:25:54 42° SW visible
02 Jun 5.3 20:42:00 10° N 20:48:00 26° NE 20:54:28 10° E visible
02 Jun 4.1 22:32:03 10° NW 22:39:37 71° WSW 22:42:08 46° S visible
03 Jun 6.1 00:28:10 10° W 00:29:33 10° WSW 00:29:33 10° WSW visible
03 Jun 4.0 21:46:41 10° NNW 21:54:15 76° ENE 21:58:25 32° SE visible
03 Jun 5.6 23:39:19 10° WNW 23:44:47 20° WSW 23:45:50 19° WSW visible
